Cloud_Cover
100 100 48 100 100 36 61 6 5 5 98 75 53 3 22 24 61 100 7 7 4 1 0 0 0 2 0 2 2 34 5 2 5 5 5 24 4 3 0 0 0 0 3
100 100 100 100 100 100 94 67 82 5 6 57 11 9 10 87 6 100 42 5 0 23 0 2 4 0 0 0 3 5 4 10 2 77 5 5 5 7 5 5 0 0 0
100 100 100 100 100 100 99 69 99 5 5 87 73 8 100 31 100 100 97 85 5 5 5 65 9 10 0 0 1 18 6 85 95 77 91 10 42 5 5 5 0 0 0
100 100 100 100 100 100 100 30 12 17 5 8 57 33 100 92 21 100 64 100 57 48 15 18 1 84 0 0 0 0 2 98 99 100 3 21 16 61 6 5 5 10 0
100 100 100 100 100 100 100 100 33 100 4 5 15 8 94 51 78 78 100 100 100 100 80 33 5 20 2 0 0 0 0 25 100 73 0 36 65 39 74 20 5 14 1
100 100 100 100 100 100 68 98 41 90 5 5 5 5 29 94 38 3 81 100 100 99 76 100 95 25 13 8 0 0 0 3 100 100 1 1 20 5 17 77 72 25 47
100 100 100 100 100 100 100 100 100 100 53 8 5 4 5 81 87 98 98 100 100 24 6 74 70 69 4 1 0 0 0 0 0 0 0 2 3 4 5 5 9 25 58
100 100 100 100 100 100 100 100 100 100 100 5 18 6 5 5 35 71 99 96 100 99 36 53 9 12 5 4 3 0 0 63 100 0 0 0 94 75 19 4 1 42 23
100 100 100 100 100 100 100 100 100 100 100 87 6 14 5 5 5 5 14 48 10 80 100 100 97 5 7 1 3 4 4 85 100 77 0 0 1 4 6 20 3 0 11
100 100 100 100 100 100 100 100 100 100 100 100 100 100 88 65 5 5 4 2 2 7 100 100 100 79 18 14 0 0 0 6 99 78 0 16 100 87 0 0 0 0 0
100 100 100 100 100 100 100 100 100 100 100 100 100 100 100 100 5 5 30 10 3 1 1 71 100 100 69 6 5 0 1 13 100 100 5 5 8 13 0 0 0 0 0
100 100 100 100 100 100 100 100 100 100 100 100 100 100 100 100 75 12 8 22 5 5 3 2 90 100 100 100 42 5 5 31 6 100 40 0 8 8 2 0 0 0 0
100 100 100 100 100 100 100 100 100 100 100 100 100 100 100 100 100 77 48 78 15 5 10 9 41 100 100 100 100 91 42 100 42 9 6 4 0 5 5 0 0 0 0
100 100 100 100 100 100 100 100 100 100 100 100 100 100 100 100 100 100 53 59 5 54 5 5 36 43 100 100 100 100 100 66 100 10 0 5 5 2 5 5 0 0 0
100 92 100 100 100 100 100 100 100 100 100 100 100 100 100 100 100 100 100 100 90 100 23 15 60 9 98 100 100 100 100 100 100 100 27 7 5 1 3 5 4 5 0
100 99 100 100 100 100 100 100 100 100 100 100 100 100 100 100 100 100 100 100 94 72 100 55 94 97 99 30 92 100 100 100 100 100 100 13 13 5 0 13 44 64 69
100 100 100 100 100 100 100 95 100 100 100 100 100 100 100 100 100 100 100 100 100 100 76 99 65 79 86 100 51 96 99 100 100 100 100 100 49 5 5 5 88 25 40
100 100 100 100 100 100 100 100 100 100 100 100 100 100 100 100 100 100 100 100 100 100 100 100 100 100 98 100 98 100 78 39 92 100 100 74 100 100 17 12 13 5 17
100 100 100 100 100 100 100 100 100 100 100 100 100 100 100 100 100 100 100 100 100 100 100 100 100 100 94 82 42 33 100 100 100 100 100 100 100 100 100 99 83 66 37
100 100 100 100 100 100 100 100 100 100 100 100 100 100 100 100 100 100 100 100 100 100 100 100 100 100 100 100 83 94 80 94 94 66 80 100 100 100 100 100 100 100 89
87 100 100 100 100 100 100 100 100 100 100 100 100 100 100 100 100 100 100 100 100 100 100 100 100 100 100 100 100 96 100 100 67 100 100 100 100 100 100 100 100 100 100
94 100 100 100 100 100 100 100 100 100 91 100 99 100 100 100 100 100 100 100 100 100 100 100 100 100 100 100 100 99 84 90 96 100 100 99 100 99 100 94 100 100 100
93 99 100 99 100 100 100 100 100 100 100 100 100 100 100 100 100 100 100 100 100 100 100 100 100 100 100 100 100 94 99 92 100 100 100 98 100 99 100 96 100 100 100
84 68 100 100 100 100 100 100 100 100 100 100 100 100 100 100 100 100 100 100 100 100 100 100 100 100 100 100 100 100 99 66 90 100 99 100 97 95 88 99 100 100 100
86 100 100 100 83 100 99 99 100 100 94 99 100 65 100 100 99 100 100 100 100 100 100 100 100 100 100 100 100 100 100 100 95 90 100 100 92 92 100 100 100 100 100
5 6 18 85 99 93 100 97 50 99 67 89 81 97 100 90 79 100 100 100 100 100 100 100 100 100 100 100 99 100 100 91 95 97 100 100 99 95 94 100 100 100 100